Theta_e
313 314 315 316 317 318 318 318 319 320 321 322 322 323 325 327 324 323 329 332 329 331 334 335 337 338 336 336 336 336 335 336 337 338 335 333 335 338 341 344 346 350 354 359 363 363 361 361 359 359 361 361 361 362 363 364 362 362 363 362 363 364 360 355 350 344 343 343 346 352 355 354 354 357 358 356 355 358 357 351 349 351 353 355 352 345 335
312 313 313 314 315 316 317 318 319 320 320 321 323 324 325 326 326 327 331 332 332 333 333 337 340 340 338 338 337 336 338 340 341 340 339 336 336 337 339 343 346 349 352 356 362 364 362 361 359 359 360 362 362 362 362 363 362 362 363 362 363 365 362 356 352 348 345 344 345 350 355 354 352 355 359 358 356 358 358 355 351 351 352 355 356 353 344
312 312 312 313 314 315 316 318 318 319 320 321 323 324 325 325 326 328 329 330 332 333 332 337 340 339 338 338 337 335 340 343 343 342 342 342 343 344 342 343 345 348 351 354 361 364 363 362 360 358 359 361 361 362 362 362 362 361 363 363 363 365 364 360 356 353 349 345 344 348 353 353 350 351 356 358 357 358 359 358 352 349 351 353 355 357 354
311 311 312 312 313 314 315 317 318 319 319 320 321 322 324 325 325 326 326 326 330 332 331 336 339 337 336 337 338 339 341 345 345 344 343 344 345 345 346 346 351 353 352 351 358 363 361 360 359 358 359 360 362 362 362 361 361 362 363 364 364 365 365 363 359 356 351 346 345 345 347 349 347 346 351 356 359 359 360 358 352 347 349 352 354 355 357
311 311 311 312 313 313 314 316 318 319 320 320 321 322 324 325 325 326 325 325 329 332 331 336 339 338 339 341 342 342 342 342 343 344 347 347 345 344 346 349 351 355 355 353 356 361 361 360 358 356 358 359 361 361 361 361 361 361 362 364 364 365 366 364 362 358 353 348 345 344 345 345 345 344 345 351 356 358 359 358 352 347 346 350 353 354 355
311 311 312 313 314 313 314 317 318 319 320 320 320 321 322 324 325 325 326 327 331 335 336 338 339 340 340 342 342 340 338 336 337 343 350 351 350 348 350 352 352 356 362 364 359 358 359 362 360 356 356 358 361 361 360 362 361 360 362 364 365 365 366 365 363 362 358 351 346 345 344 343 343 343 343 346 350 354 357 356 350 347 349 352 352 350 351
311 311 312 314 314 314 315 317 318 319 320 321 322 322 322 324 324 325 327 329 331 335 338 338 338 340 341 342 340 338 337 338 340 346 351 354 353 353 354 356 358 360 364 365 363 357 356 358 360 360 357 356 360 361 361 362 362 360 362 364 365 366 367 366 364 363 362 357 349 345 345 344 343 343 343 345 347 350 354 356 351 346 349 352 351 347 346
311 311 312 312 313 315 315 317 318 319 320 321 322 322 322 325 328 329 331 331 331 334 337 337 337 339 339 339 340 339 340 345 347 349 351 352 352 354 355 356 358 360 362 363 365 364 360 356 356 359 359 356 359 360 362 362 362 361 362 363 365 367 367 366 364 363 363 361 355 348 345 344 344 344 345 346 347 348 351 356 356 351 348 350 350 348 346
310 310 311 312 313 314 314 315 317 318 321 324 325 327 328 329 330 331 332 333 333 333 335 335 336 338 339 337 339 341 341 342 344 345 348 350 351 353 355 355 356 359 361 362 363 364 362 356 354 358 359 356 358 360 362 362 362 361 361 364 366 366 366 366 364 362 361 360 356 350 347 347 345 345 345 345 346 347 349 354 358 357 352 350 350 350 349
311 310 311 312 313 314 315 319 322 323 326 329 329 330 333 331 329 331 332 332 332 331 332 334 336 338 339 336 338 340 336 336 338 341 345 348 350 353 354 356 357 357 360 363 362 361 359 354 352 357 359 356 358 360 362 364 363 362 362 365 365 364 364 364 363 359 359 358 354 351 349 348 346 345 345 345 345 346 346 349 356 359 358 356 355 352 350
311 310 310 312 312 314 321 325 324 323 326 327 327 331 333 332 329 330 330 329 330 329 330 333 336 340 340 338 337 334 331 332 336 340 344 346 348 351 354 355 356 357 359 360 358 357 357 353 349 354 359 358 358 360 362 364 364 363 363 365 364 361 361 362 361 358 358 357 353 351 349 347 347 347 346 345 345 345 346 346 352 358 361 360 359 358 354
312 311 311 311 312 317 324 325 323 323 325 325 328 333 333 329 327 328 328 328 328 328 330 333 335 336 337 336 332 328 328 331 334 338 343 344 346 350 353 354 356 357 358 358 357 357 357 353 351 355 359 359 358 360 363 364 364 363 363 362 362 362 361 361 359 358 358 356 351 349 348 348 348 349 348 347 346 346 346 347 350 355 359 360 360 360 359
312 312 311 311 312 319 323 322 322 323 324 326 329 331 329 327 326 326 326 326 325 326 329 332 331 329 328 327 326 326 328 330 332 336 340 342 345 349 352 353 355 356 357 360 360 359 356 353 354 356 358 360 359 360 363 364 362 362 363 363 364 364 361 358 358 360 361 357 352 351 351 350 349 350 350 350 348 347 348 350 354 357 359 359 360 361 360
311 312 312 310 313 319 321 321 322 323 324 327 327 324 322 323 324 323 323 323 324 325 327 327 327 324 323 324 324 325 327 328 330 333 337 340 343 347 350 353 355 356 357 359 361 359 356 355 357 358 358 360 359 361 363 363 360 360 364 366 365 363 358 357 360 362 361 358 353 355 355 351 349 349 349 349 350 351 352 353 356 358 359 359 360 360 361
312 312 312 311 313 317 320 321 322 321 323 324 321 319 321 322 321 321 321 321 322 324 324 325 324 322 322 323 323 324 327 328 329 331 336 339 342 346 349 352 355 357 358 359 360 358 356 356 357 357 359 360 359 361 364 362 360 363 366 366 364 360 356 358 360 361 360 358 354 357 358 353 349 349 348 349 351 351 352 355 358 359 358 358 360 361 361
313 313 313 313 316 317 318 320 321 320 319 319 318 318 320 320 319 320 320 319 321 322 322 323 323 323 322 322 322 324 327 328 328 331 335 338 341 346 350 352 354 357 359 360 360 358 356 357 357 358 359 360 361 363 364 362 361 365 366 365 364 361 357 357 359 361 362 359 354 357 361 358 353 351 349 349 352 352 352 356 359 361 361 360 359 361 363
314 314 315 316 317 317 317 318 319 318 318 318 317 317 317 317 318 319 319 319 320 320 321 322 323 323 322 321 321 322 323 325 327 330 334 337 340 345 349 352 354 357 360 360 360 359 357 356 357 359 360 360 361 363 364 363 363 364 366 366 364 362 358 357 359 361 362 359 356 360 364 361 355 353 352 351 352 355 356 358 360 363 364 362 361 361 363
314 315 315 316 316 317 317 317 318 318 317 317 318 318 317 317 317 317 318 319 319 320 321 321 322 322 322 322 322 321 321 322 325 329 333 337 341 344 348 352 355 358 360 360 361 362 360 357 358 359 359 360 363 365 365 365 364 364 366 365 364 362 361 360 360 362 364 363 361 360 364 363 358 354 354 353 354 358 360 362 362 364 364 364 362 362 364
314 314 315 316 316 317 316 316 317 317 317 317 317 317 317 317 316 316 317 318 319 319 320 320 321 322 322 322 321 321 321 322 324 328 332 336 340 343 346 350 354 357 359 361 362 362 362 360 360 360 359 361 364 365 365 365 363 365 367 365 363 364 365 363 363 364 364 364 364 363 365 365 362 359 357 356 358 360 362 362 363 363 363 363 364 364 364
313 314 316 315 314 315 316 317 318 317 317 316 316 317 317 317 316 316 316 317 318 319 319 320 320 321 321 320 320 321 321 321 323 326 330 334 339 342 344 346 352 355 357 359 361 362 363 362 362 361 361 362 364 365 365 364 363 366 368 366 365 367 367 365 365 364 363 363 365 366 366 365 365 364 363 362 363 363 360 361 363 364 363 364 365 364 365
313 314 315 313 313 315 316 316 316 316 316 316 316 315 316 317 317 317 317 317 318 319 319 319 320 321 321 320 320 321 321 322 323 325 329 332 337 340 342 344 347 350 353 355 358 361 362 363 364 364 363 363 364 365 365 364 364 367 367 366 366 368 368 367 366 364 363 364 365 367 367 366 365 366 365 364 365 366 363 362 363 364 364 364 365 365 365
312 313 312 311 312 314 314 313 314 315 315 316 316 316 316 317 317 318 318 317 318 319 319 319 320 321 321 320 319 320 321 322 323 325 327 330 334 338 340 343 345 347 350 353 355 357 360 361 363 365 365 364 364 364 364 364 365 367 367 366 367 368 369 369 367 364 365 366 366 367 368 366 365 366 366 365 365 367 366 364 363 364 364 365 365 366 365
310 310 310 310 311 311 311 312 313 314 314 315 316 316 317 317 318 318 318 318 319 319 319 320 320 321 321 320 319 320 321 321 322 325 326 328 332 335 338 341 343 345 346 350 353 355 356 359 361 362 364 364 365 364 365 365 365 367 367 366 367 369 369 369 368 366 366 366 367 367 368 367 366 366 366 366 365 365 367 366 365 365 364 365 366 366 365
308 309 309 309 310 311 311 312 312 313 314 316 316 317 317 318 318 318 318 318 319 319 319 320 320 320 321 321 319 319 321 321 321 324 326 327 329 331 334 337 340 342 342 345 349 351 353 354 357 359 361 362 363 364 366 365 364 366 368 367 366 367 367 368 368 366 366 368 368 367 368 368 368 367 366 366 366 365 366 367 367 366 365 365 365 366 365
308 308 309 310 310 311 311 311 312 314 314 315 316 317 317 318 319 319 319 319 319 319 319 319 320 321 321 321 318 318 321 321 321 323 326 327 327 329 331 333 336 338 340 341 343 347 349 350 351 354 357 359 362 364 366 366 364 365 366 366 366 367 368 368 367 366 367 368 367 368 368 368 370 369 367 366 366 365 365 366 367 366 366 365 365 365 366
308 308 309 310 310 310 310 311 313 314 314 315 316 317 318 318 318 318 319 319 318 319 319 319 320 321 320 320 320 319 319 320 321 323 325 326 327 328 329 331 332 335 338 340 340 342 345 346 347 349 352 354 357 360 364 366 367 366 365 365 366 366 367 368 366 365 367 368 368 368 368 368 370 371 370 368 367 366 366 366 366 366 366 366 366 366 365
308 309 309 310 310 310 310 311 312 313 314 315 316 317 318 318 317 318 318 318 318 318 318 319 319 320 320 320 321 320 318 318 320 322 324 325 327 328 328 330 330 330 334 337 338 339 341 342 344 345 347 350 353 356 359 363 366 367 367 367 366 366 366 368 367 365 365 367 367 368 367 367 368 370 369 368 367 367 366 365 365 365 365 365 366 366 364
309 309 309 309 310 310 310 310 311 312 313 315 316 317 318 318 317 317 317 318 318 318 318 318 319 319 319 319 320 320 319 319 321 322 323 325 326 327 328 329 328 328 329 332 334 336 338 339 340 342 344 346 350 352 354 357 362 364 364 364 365 366 366 366 365 365 366 367 367 367 367 368 367 366 366 365 364 366 366 364 364 364 363 363 364 364 363
309 309 308 308 309 309 310 310 311 311 313 314 315 316 317 318 317 317 317 317 317 318 318 318 319 318 319 318 318 318 319 320 320 322 323 324 324 325 327 329 328 327 327 328 328 332 335 337 338 339 340 342 345 349 350 351 354 357 359 360 361 363 363 363 362 363 365 366 365 365 366 366 365 364 363 362 363 364 364 364 363 362 361 359 360 361 362
309 309 309 308 308 309 310 310 310 311 312 313 314 315 317 318 317 317 317 317 317 317 318 319 319 319 318 318 317 318 319 319 320 321 323 324 323 322 324 327 328 327 326 325 324 326 330 334 336 336 337 339 342 345 347 348 349 350 353 356 360 360 361 361 362 363 364 364 363 363 363 362 362 362 363 363 364 363 362 362 361 360 358 358 360 361 361
309 310 309 309 309 309 309 310 310 310 311 312 313 314 315 317 318 317 317 317 316 317 318 318 318 318 318 318 318 319 320 320 319 319 320 321 322 321 322 325 328 327 325 323 322 323 325 328 331 333 334 336 339 341 343 345 346 347 348 351 355 358 359 360 360 361 361 362 362 361 361 361 362 363 363 364 363 361 359 359 359 357 357 358 360 361 361
309 309 309 309 309 309 309 309 310 310 310 311 312 313 314 316 318 317 317 316 316 315 315 314 314 315 317 319 320 320 321 320 320 318 317 320 323 322 321 323 326 326 323 320 321 322 323 322 324 326 328 331 335 338 340 341 342 344 345 347 350 353 355 356 356 357 358 359 360 360 360 361 361 361 361 362 361 361 359 359 358 357 356 357 357 358 358
309 309 309 309 309 309 309 309 309 309 310 310 311 312 312 314 316 317 317 317 316 315 315 314 313 314 317 319 321 321 321 321 320 317 317 321 324 323 321 322 323 324 322 320 319 321 322 321 322 323 324 325 327 331 336 339 340 340 341 342 344 346 350 352 353 354 355 356 357 357 357 357 357 358 358 359 360 359 357 355 355 355 354 354 355 354 354
309 309 309 309 309 309 309 309 309 309 310 310 310 311 311 312 315 316 317 318 317 316 316 316 316 317 318 320 321 320 320 320 320 318 318 320 322 322 323 322 322 322 322 322 321 320 321 321 322 321 322 323 323 323 327 334 338 338 338 339 340 342 343 346 348 349 351 352 353 354 354 354 355 355 355 355 355 354 353 352 353 354 355 355 353 352 351
309 309 309 309 309 309 309 309 309 309 309 309 309 310 310 311 312 314 315 317 318 317 317 317 318 319 319 319 319 319 319 319 320 319 319 319 320 320 322 323 322 322 323 324 323 322 321 321 321 321 321 322 323 322 325 330 335 337 336 336 338 339 340 341 341 343 345 347 348 349 350 351 352 352 352 351 352 353 353 351 352 353 354 354 351 349 349
309 309 309 309 309 309 309 309 309 308 308 308 309 309 309 310 311 312 313 315 316 317 317 317 318 318 317 317 318 318 318 318 319 319 319 319 319 319 320 321 321 322 322 323 324 324 323 322 321 322 322 321 322 323 325 328 332 335 334 334 336 337 338 339 339 339 341 342 343 344 345 346 347 348 349 349 350 351 351 350 349 349 350 349 346 345 344
308 309 309 308 308 309 309 308 308 308 308 308 308 309 309 309 309 310 311 313 314 315 316 316 316 315 316 316 316 316 317 317 318 318 317 317 318 318 319 319 319 320 321 321 322 323 324 324 323 322 322 321 322 323 325 326 329 331 332 333 334 336 336 337 337 338 339 340 341 341 342 342 342 343 344 345 346 346 347 346 344 343 343 342 341 340 340
308 309 308 308 308 308 308 308 308 307 307 308 308 308 308 308 308 308 309 310 311 313 313 314 314 314 314 315 315 315 316 316 316 317 317 316 316 316 317 317 317 317 318 319 320 321 323 323 323 323 322 321 320 322 324 325 326 327 328 330 332 334 335 335 335 336 336 338 339 340 341 340 339 339 339 339 340 341 341 341 340 338 338 337 336 336 336
308 308 308 308 308 308 308 308 308 307 307 308 308 308 308 308 307 308 308 308 309 310 311 312 313 313 313 313 314 314 314 314 315 315 316 316 315 314 314 314 314 314 314 316 318 320 321 322 323 323 324 322 320 321 322 322 323 325 326 328 330 332 333 334 335 335 335 336 337 339 340 339 338 337 336 335 336 336 336 337 337 337 336 335 334 333 333
308 308 308 308 308 307 307 307 307 307 307 307 307 308 308 308 307 307 307 307 308 308 309 310 311 312 312 312 312 312 313 313 313 313 314 314 314 313 313 312 312 311 312 313 316 317 319 320 321 322 323 324 323 323 322 322 322 324 326 328 330 331 331 333 333 334 335 335 336 337 337 337 336 335 333 332 332 332 333 333 333 333 332 332 331 330 329
308 308 308 308 308 307 307 307 307 307 307 307 307 307 308 307 307 307 307 307 307 307 308 308 309 310 310 311 311 311 311 311 311 311 311 312 312 312 311 311 310 310 311 312 314 315 317 318 320 321 322 323 323 324 324 323 323 325 327 328 329 329 330 331 332 333 333 333 334 334 334 334 333 332 331 330 329 329 329 329 329 329 328 328 328 328 327
308 307 307 307 307 307 307 307 307 307 307 306 306 307 307 307 307 307 306 306 306 306 307 307 308 308 309 309 310 310 310 310 310 309 309 310 310 310 310 310 309 309 309 310 312 313 314 315 316 317 318 319 321 323 324 324 324 325 327 327 328 328 329 330 331 331 331 332 332 332 331 330 329 328 327 327 327 326 325 325 325 325 325 325 325 326 327
308 307 307 307 307 307 307 306 306 306 306 306 306 306 306 306 307 306 306 306 306 306 306 306 307 307 307 308 309 309 309 309 309 309 309 308 308 308 308 308 308 309 309 309 309 310 311 311 311 312 314 315 317 319 322 323 324 325 325 325 326 326 327 328 329 329 329 329 329 328 328 327 327 325 325 324 324 323 323 323 323 322 323 324 324 325 325
307 307 307 307 307 307 307 306 306 306 306 306 306 306 306 306 306 306 306 306 306 306 306 306 306 307 307 307 307 308 308 308 308 308 308 308 307 307 307 307 307 308 308 308 307 307 307 308 309 311 312 313 315 317 318 319 320 321 322 322 322 322 323 324 325 325 325 325 325 324 323 323 323 322 322 322 321 320 320 320 320 320 320 321 322 323 323
307 307 306 307 307 307 306 306 306 306 306 306 306 306 306 305 305 305 305 305 306 306 306 305 306 306 306 306 306 306 306 307 307 307 307 307 306 306 306 306 307 307 307 307 306 306 306 306 308 310 311 312 314 315 316 316 316 316 317 317 318 318 319 319 319 320 321 322 322 321 320 319 319 319 319 320 320 320 319 319 318 318 318 318 318 319 320
308 308 307 307 307 307 306 306 305 306 306 306 306 306 305 305 305 305 305 305 305 305 305 305 305 305 306 306 306 306 306 306 306 306 306 306 305 305 305 305 305 305 305 305 305 306 306 307 307 309 310 312 313 314 314 314 313 312 313 314 315 315 314 314 314 315 316 316 317 317 317 317 317 316 316 317 317 318 318 318 318 317 316 315 315 316 316
307 308 308 307 307 307 306 306 305 305 306 305 305 305 305 305 305 305 305 305 305 305 305 305 305 305 305 306 306 306 306 305 305 305 305 304 304 304 305 304 304 303 304 304 304 304 305 306 307 308 309 310 310 311 311 310 308 307 308 309 311 311 311 311 311 311 311 311 312 313 314 314 314 314 314 314 314 314 314 315 315 315 315 315 314 314 314
306 306 307 307 307 306 306 306 306 306 306 305 305 305 305 305 305 305 304 304 304 304 304 305 305 305 305 305 305 305 305 305 304 304 303 303 302 302 302 303 302 302 302 302 302 302 303 304 305 307 308 308 307 306 306 305 304 304 304 305 306 306 307 308 308 308 308 308 308 309 311 311 312 313 313 313 313 313 312 312 312 312 313 313 313 313 312
306 306 306 306 306 305 306 306 306 306 306 305 305 305 305 305 305 304 305 304 304 304 304 304 304 304 305 305 305 305 305 305 304 303 303 302 301 300 300 300 301 300 300 301 301 301 301 302 303 304 306 307 306 305 304 303 302 303 303 303 303 303 304 304 304 305 305 305 305 306 306 307 309 310 311 311 311 312 312 312 311 310 310 311 311 310 310
305 305 306 306 306 305 305 305 306 307 306 305 304 304 305 304 304 304 304 304 304 304 304 304 304 304 304 304 305 304 304 304 304 304 303 303 302 302 301 301 300 300 300 300 300 300 300 301 301 301 302 303 304 304 303 303 303 302 302 302 302 302 302 303 304 304 304 303 304 304 304 304 305 306 307 308 309 309 310 310 309 308 308 308 307 306 306
305 305 306 306 305 305 305 305 305 306 306 305 304 304 304 304 304 304 304 304 304 304 304 304 304 304 304 304 304 304 304 304 304 304 304 303 303 303 302 302 301 301 300 300 300 300 300 300 300 300 300 299 300 300 300 301 301 301 301 301 301 301 301 302 302 302 302 302 302 302 302 302 302 303 303 304 304 304 304 303 303 303 302 302 301 300 300
304 305 305 306 305 304 304 304 305 305 305 304 304 303 303 303 303 303 303 304 304 304 304 304 303 303 303 304 304 303 303 303 304 303 303 303 303 303 303 303 302 302 301 301 300 300 299 299 299 299 300 299 298 298 298 298 298 298 299 299 299 299 299 299 299 300 300 300 300 300 300 299 299 299 299 299 299 299 298 298 298 298 297 297 297 296 296
Wind_Speed
19 22 22 19 17 16 16 18 18 15 18 20 18 16 17 18 13 10 13 15 14 13 9 8 7 4 4 6 6 4 4 7 8 6 3 5 9 11 11 11 13 15 17 21 25 28 29 30 30 30 31 33 33 33 34 34 34 34 36 37 38 39 41 43 45 46 46 45 44 41 38 38 36 33 31 31 30 29 29 30 30 29 27 26 27 30 32
18 20 21 20 18 18 18 19 19 16 16 18 16 19 20 20 20 17 14 12 10 14 12 7 12 8 6 8 5 3 4 4 5 4 1 2 4 7 8 9 12 15 17 19 23 26 28 29 30 30 30 32 33 34 35 36 35 35 36 37 38 39 40 43 45 45 45 45 44 41 39 39 38 36 33 31 31 31 30 30 30 29 29 27 26 27 30
14 17 19 20 20 20 20 20 19 17 17 16 15 17 18 20 23 23 21 17 10 13 15 2 11 8 9 9 9 5 4 2 2 4 5 5 5 5 4 2 2 6 11 15 20 24 27 29 30 30 30 31 33 33 34 35 36 35 36 38 39 39 40 42 44 44 45 45 44 43 41 40 41 38 35 33 33 32 31 31 31 31 30 29 27 26 27
11 14 17 19 20 21 22 21 20 18 17 15 14 15 17 18 20 23 23 19 10 11 16 7 9 10 11 10 11 7 5 5 6 8 9 8 8 8 9 9 8 6 7 12 17 22 25 27 29 30 30 30 32 33 34 36 36 35 36 37 38 38 38 40 43 44 44 45 45 45 44 42 42 41 38 36 34 34 33 33 33 33 32 31 30 28 25
11 13 16 17 17 18 19 18 18 19 17 17 16 17 18 18 18 18 17 15 12 14 15 8 8 10 11 10 11 11 10 11 11 10 11 11 9 10 11 11 11 11 9 10 14 19 23 25 27 30 31 31 33 34 34 35 35 35 35 35 37 38 37 39 42 44 44 45 44 45 45 44 43 42 41 39 38 36 35 35 35 34 33 32 32 30 28
10 13 14 13 13 14 13 12 16 19 20 21 21 19 19 19 18 17 14 13 12 9 7 7 7 9 12 14 15 15 15 16 16 13 11 10 9 10 11 11 11 11 11 11 12 15 19 24 27 29 31 32 32 32 32 33 34 35 35 34 36 37 36 38 41 40 41 44 45 44 45 45 44 42 42 42 41 39 37 36 36 36 34 32 32 33 31
9 11 11 11 12 12 9 11 16 18 19 21 23 22 23 22 19 17 17 15 12 5 6 7 8 11 14 17 18 18 17 17 17 13 11 10 10 11 12 12 12 13 13 13 14 14 16 21 25 27 29 31 31 30 32 34 35 36 36 35 35 36 36 37 39 36 33 38 44 45 45 45 45 43 43 43 42 41 38 36 37 38 36 34 34 35 35
8 9 10 10 10 10 11 14 17 16 14 15 18 22 23 20 14 11 13 14 13 9 7 8 10 12 14 16 17 15 12 13 13 12 11 13 14 14 15 16 16 15 15 15 16 16 17 19 23 27 30 31 31 31 33 35 36 36 36 36 35 36 37 38 39 36 31 32 40 45 45 45 46 45 43 43 43 42 39 35 35 37 37 36 35 36 36
9 9 10 9 10 11 13 15 14 12 11 10 10 11 13 14 12 8 6 7 7 7 8 11 13 14 13 14 11 8 14 17 16 15 14 15 16 17 18 18 18 18 18 17 17 17 18 19 21 26 30 31 31 32 33 35 36 37 37 37 37 38 39 39 39 38 35 34 38 43 44 45 46 46 45 44 43 43 42 37 33 34 36 36 36 36 36
9 10 9 9 10 11 9 7 6 8 9 7 3 2 6 9 8 4 3 2 3 7 9 12 13 12 11 10 4 11 21 21 19 19 17 16 17 18 19 19 20 20 19 19 18 16 17 18 21 25 29 32 33 34 35 35 37 39 39 39 40 41 41 40 40 40 40 39 41 42 43 44 45 46 45 45 44 43 43 40 34 31 31 33 34 35 35
9 10 9 9 10 7 2 5 10 14 16 14 5 4 5 4 2 2 3 2 3 5 8 10 10 8 8 7 4 18 25 23 22 21 20 19 19 19 19 20 21 21 22 22 20 17 16 18 21 24 29 32 34 35 36 37 38 39 40 41 43 44 42 40 40 40 40 41 41 40 41 43 44 45 45 44 43 43 42 42 37 31 28 29 30 31 33
11 11 9 8 8 3 4 7 9 13 17 15 6 7 4 2 4 4 2 2 3 4 6 7 5 4 4 6 12 21 24 22 21 20 20 21 20 20 20 20 20 21 22 22 20 17 16 18 20 24 29 33 34 36 37 37 38 39 42 43 43 42 41 39 38 38 38 39 40 39 39 41 42 42 43 42 42 42 41 40 38 33 29 28 27 28 29
13 13 11 9 7 1 5 9 9 11 13 9 3 4 2 5 4 3 3 3 3 4 4 4 3 4 8 12 17 20 21 21 21 20 20 20 18 19 20 19 19 20 20 19 18 16 16 17 19 24 29 32 34 36 36 36 39 40 41 41 39 38 39 39 37 36 36 37 38 38 37 39 40 40 40 39 39 40 39 37 34 31 29 28 27 26 27
11 11 10 11 7 2 8 11 8 8 7 4 1 7 11 7 6 5 4 4 4 4 4 4 6 8 11 14 17 19 20 21 21 20 21 20 18 17 17 16 16 18 19 18 16 14 14 15 19 24 28 32 34 35 36 37 39 38 36 36 38 39 39 38 36 35 35 35 36 35 35 37 38 38 38 38 37 37 36 34 31 30 30 29 27 25 25
10 10 11 11 7 3 10 10 5 7 5 2 4 11 11 5 7 6 5 5 5 5 5 6 8 11 13 15 17 20 20 20 21 21 21 21 19 17 15 15 15 16 17 17 14 13 13 15 19 23 27 32 33 34 36 37 35 31 32 35 37 39 39 37 35 34 34 34 34 32 33 36 37 37 37 36 35 35 34 32 30 30 30 30 28 25 24
7 9 7 4 2 4 10 8 3 4 4 3 6 11 11 7 7 7 6 6 7 6 7 7 9 11 13 16 19 22 22 22 23 22 21 22 19 14 13 12 11 12 14 14 12 12 13 14 18 22 26 30 31 32 34 34 30 28 30 34 36 37 37 37 35 33 32 33 32 30 31 34 35 35 35 35 34 34 33 31 29 28 28 30 29 26 24
5 7 5 4 6 6 8 8 5 3 3 3 6 9 11 11 10 9 8 8 8 7 8 8 10 11 13 15 18 22 25 26 26 24 23 22 18 14 13 8 8 11 12 9 9 9 12 15 17 21 24 27 29 29 28 28 28 27 29 32 34 36 36 35 34 32 30 31 31 29 29 31 33 33 33 33 32 32 31 30 28 27 26 27 27 26 24
7 9 9 8 8 8 8 8 5 2 2 5 8 9 9 11 13 13 12 11 9 8 8 9 11 12 14 15 17 21 25 27 27 26 25 22 16 15 15 8 4 10 11 4 6 5 8 14 18 21 23 24 26 26 25 25 27 27 28 31 33 33 33 33 32 30 28 27 28 28 27 28 30 31 30 30 31 30 29 28 27 26 25 24 24 24 24
6 6 5 6 8 11 12 10 4 1 3 6 10 11 10 10 13 14 14 13 12 9 7 9 11 12 14 17 18 21 26 29 28 27 25 22 16 13 15 12 7 8 11 5 1 1 3 9 13 17 20 21 22 24 24 25 26 27 28 30 31 30 29 29 30 29 27 26 25 25 26 25 26 26 26 26 27 28 28 27 27 26 25 24 24 24 23
7 6 6 11 15 15 11 6 3 4 7 10 12 13 13 12 13 14 14 14 13 10 8 9 11 12 14 17 18 21 24 28 28 27 25 22 17 14 16 16 13 11 12 11 6 3 3 6 9 13 16 18 20 23 24 24 26 27 27 28 28 27 26 27 27 27 27 25 24 24 25 24 22 23 24 24 25 27 28 27 26 25 26 25 25 24 23
8 7 7 14 15 10 5 7 9 9 12 14 15 15 15 14 14 14 14 14 13 12 10 9 10 11 14 17 19 20 23 26 28 27 25 22 20 17 16 17 16 15 15 14 11 8 5 4 7 10 13 15 16 20 22 24 25 26 25 25 26 25 25 25 26 26 25 25 24 23 23 23 23 23 25 25 24 24 25 26 26 26 25 25 25 24 23
5 5 9 13 11 7 9 15 16 15 15 17 17 15 15 14 13 13 14 14 13 12 11 10 9 10 13 16 18 19 21 25 26 26 26 24 22 21 18 16 17 19 19 17 15 13 10 7 7 9 11 14 15 17 19 21 24 25 24 23 24 25 24 24 24 25 25 23 24 23 22 24 27 27 27 28 27 26 25 27 28 27 26 26 26 25 24
6 10 14 15 12 12 15 18 17 17 18 17 16 15 15 14 13 13 13 13 13 12 11 10 9 9 12 15 17 18 21 24 24 24 24 24 23 22 20 17 17 20 21 21 20 18 14 9 6 7 9 10 13 15 17 19 22 24 24 24 23 24 24 23 23 25 24 23 24 24 23 24 27 28 28 28 28 28 28 28 28 28 29 29 28 26 25
10 13 15 16 16 15 16 17 18 18 16 14 14 15 15 14 13 12 12 12 12 12 11 10 9 9 11 12 14 16 19 22 23 23 23 23 21 21 22 21 19 20 22 23 22 20 17 14 10 7 7 7 8 10 14 19 21 21 21 23 23 21 21 21 22 23 23 22 23 23 24 24 25 26 28 28 29 30 30 29 28 28 29 30 30 27 26
11 13 16 16 15 14 14 16 16 14 12 13 14 15 15 14 12 12 12 12 11 11 10 10 9 9 10 11 12 14 16 20 22 23 23 23 21 20 23 23 21 21 22 23 23 21 19 19 19 16 10 7 5 5 7 13 19 20 19 19 19 19 19 20 22 23 22 22 22 23 24 24 22 22 24 27 28 30 31 30 29 27 27 28 30 29 27
13 15 17 13 10 11 14 14 13 12 13 14 14 13 14 13 11 11 11 11 11 10 9 10 10 9 9 11 12 12 13 16 20 21 22 23 22 22 23 23 22 21 21 22 24 24 21 20 22 24 20 13 9 6 5 9 15 18 18 17 17 17 18 19 20 20 20 22 22 22 22 23 22 20 19 21 22 25 29 31 31 30 28 28 28 29 29
16 17 17 12 9 13 17 15 14 14 14 14 13 14 13 11 10 9 9 10 10 9 9 8 9 9 8 9 11 12 11 13 18 21 21 21 22 22 22 21 21 22 23 23 25 26 24 21 21 23 23 21 17 12 7 8 13 16 16 16 17 18 19 19 18 17 19 21 21 20 20 23 22 19 16 17 18 19 22 25 28 31 32 31 29 28 28
18 18 18 14 13 16 17 15 14 15 14 13 13 14 13 10 8 9 9 10 10 9 8 7 7 8 8 8 10 11 11 11 14 18 20 20 20 20 20 21 22 23 23 24 24 26 26 24 23 24 24 22 21 18 12 6 10 15 15 13 15 19 21 19 16 16 17 18 18 17 17 19 20 18 16 16 17 17 18 20 23 28 31 31 31 30 29
17 18 19 18 17 17 16 14 15 16 16 15 14 14 14 11 8 7 8 9 9 8 7 7 6 7 8 9 9 10 11 11 12 15 17 18 19 19 19 19 20 20 21 23 25 26 25 24 24 26 26 24 21 21 18 12 7 12 15 15 15 17 19 17 15 14 14 14 15 17 15 14 15 16 15 15 16 18 20 22 22 24 25 25 28 31 31
17 17 19 20 20 19 16 15 16 18 19 19 17 16 16 14 9 6 6 7 6 6 5 5 4 5 7 8 8 8 9 9 11 13 14 15 17 18 19 19 19 20 22 25 27 27 26 24 24 26 27 25 22 21 22 18 12 10 11 15 16 16 16 17 15 14 13 13 14 15 13 11 12 14 16 19 19 18 20 23 22 22 22 20 21 23 24
17 17 18 19 19 19 18 17 17 18 20 21 19 18 18 17 12 6 5 4 3 3 5 5 3 3 5 7 8 8 8 9 9 10 11 12 14 15 17 18 19 19 20 22 25 26 25 24 24 25 26 25 22 21 22 22 19 16 13 12 14 14 13 13 14 13 12 12 12 11 10 9 12 14 17 21 21 17 17 18 17 17 17 16 16 16 17
17 17 18 19 20 19 19 19 20 21 21 21 21 20 20 19 15 8 3 4 3 1 2 3 3 3 4 7 8 7 7 8 8 7 8 10 11 12 14 15 16 16 17 18 21 22 22 23 24 26 26 24 21 20 21 22 22 22 20 16 14 13 12 12 12 12 12 13 15 14 12 11 13 14 15 18 19 18 16 14 13 13 14 15 15 15 14
17 17 19 20 21 21 21 21 22 22 22 22 22 20 20 20 17 12 6 1 3 3 4 2 1 2 3 5 6 6 6 6 6 7 8 9 10 11 12 13 14 14 14 15 17 17 18 19 21 22 23 24 23 21 19 20 19 18 18 18 16 14 13 14 14 12 11 11 13 13 12 11 11 12 13 15 17 16 15 13 14 14 15 15 16 16 15
14 15 16 17 19 20 20 20 21 22 23 23 22 21 22 23 21 16 11 5 2 1 1 2 2 2 2 2 4 5 7 7 7 7 8 9 11 11 11 10 11 12 12 12 12 13 14 15 17 18 18 19 21 21 19 18 16 15 13 15 16 15 13 12 12 11 10 9 7 6 6 6 6 8 11 12 14 15 15 16 17 17 16 17 17 16 16
13 13 14 15 16 17 17 17 19 21 22 23 23 22 22 23 23 20 16 12 8 5 4 3 2 2 2 2 3 5 6 7 8 8 9 10 11 11 11 10 9 10 10 10 10 11 12 12 13 14 14 15 16 16 15 12 11 11 12 12 14 16 16 15 13 11 9 7 5 4 3 3 4 7 11 12 13 15 16 17 18 18 17 17 17 17 18
12 12 13 14 15 16 16 15 16 19 21 21 22 22 22 22 23 22 20 17 14 11 8 7 6 5 4 4 5 6 7 8 8 8 9 10 11 11 11 11 10 9 8 9 9 9 9 9 10 11 10 12 13 12 10 8 7 8 9 11 13 14 16 15 14 14 12 10 8 6 5 4 2 4 8 10 12 14 15 16 16 16 15 16 18 20 21
11 11 12 13 14 15 15 13 13 17 19 19 19 20 21 21 22 22 21 19 17 14 12 10 9 8 7 7 7 8 9 9 9 9 9 10 11 12 11 11 12 12 10 9 10 10 8 6 6 7 8 8 10 10 9 8 7 7 9 10 11 12 14 14 14 13 12 10 9 8 6 5 3 1 3 7 9 12 14 16 16 16 16 18 20 21 23
10 10 11 12 13 14 15 14 14 16 17 16 17 18 19 20 20 21 21 21 19 16 14 12 10 9 9 9 9 10 10 10 9 9 9 10 11 13 13 13 15 15 14 12 11 10 9 7 5 5 6 7 8 10 11 11 10 10 10 11 11 10 11 12 13 13 12 10 8 6 5 4 3 1 2 5 8 11 13 16 19 20 21 21 21 22 23
9 9 10 11 12 13 15 15 16 17 17 16 16 17 18 19 19 19 20 21 19 17 16 14 12 11 11 11 11 12 12 11 10 10 9 9 10 11 13 14 15 15 15 14 12 10 10 8 6 5 4 4 5 7 9 10 11 12 11 11 10 10 10 11 11 11 10 9 7 5 3 2 2 2 4 6 9 11 14 16 19 21 22 23 23 22 22
7 9 10 11 11 13 15 16 16 17 17 17 17 17 17 17 17 18 19 19 18 17 17 16 14 13 13 13 13 14 14 14 14 12 11 10 11 11 12 13 15 15 15 15 15 12 10 7 6 6 5 4 2 4 6 7 9 10 11 10 10 10 9 9 9 8 8 7 7 4 2 2 3 4 6 7 9 12 14 16 18 19 19 20 21 21 21
6 8 8 9 10 12 14 15 15 16 17 17 17 17 17 17 16 17 18 17 16 16 17 16 15 15 15 15 15 16 16 17 18 17 16 15 14 14 14 15 15 15 15 14 13 12 10 8 7 7 7 5 4 3 4 5 6 7 8 9 9 9 8 7 6 6 6 5 4 3 2 3 4 6 7 8 10 11 12 14 15 16 16 16 17 17 17
5 6 7 8 9 10 11 13 14 15 16 16 16 17 17 17 16 16 16 16 16 16 17 16 16 16 16 16 16 16 16 17 18 20 20 20 18 16 15 15 15 15 14 13 12 11 11 11 10 10 9 9 8 6 4 3 4 5 6 6 7 7 6 5 5 4 4 3 2 2 3 4 5 7 8 9 10 10 11 12 12 13 14 15 16 18 18
4 5 6 8 9 9 10 11 12 14 15 15 16 16 16 16 16 16 16 16 16 17 17 17 17 17 17 18 18 18 17 17 18 19 20 20 20 18 17 15 16 15 14 12 11 11 12 12 12 11 10 10 10 9 7 6 5 5 4 5 5 5 5 5 5 4 4 4 3 3 4 4 5 7 8 9 10 11 11 12 12 13 14 16 18 20 21
4 4 6 7 7 8 9 10 11 12 13 14 15 15 15 15 16 16 16 16 16 16 16 17 17 16 16 17 18 19 18 18 19 19 19 20 21 21 19 17 16 16 15 15 15 15 15 13 11 10 9 9 9 9 10 10 10 9 7 7 7 7 7 7 6 6 6 6 6 6 6 6 7 8 9 10 11 12 12 13 14 15 16 17 19 21 21
4 4 5 5 6 7 8 9 10 11 11 11 13 14 14 15 15 15 15 15 15 16 16 16 16 16 15 15 16 17 18 19 19 19 19 20 22 22 20 17 16 16 16 17 18 19 17 14 11 10 9 8 8 9 12 13 14 14 14 13 12 12 12 11 10 10 10 9 9 9 9 9 10 11 11 11 12 12 13 14 15 16 17 18 19 20 21
4 4 4 5 5 6 6 7 9 10 10 11 11 13 14 14 15 15 15 15 15 15 15 15 16 16 15 13 13 13 15 18 20 19 18 19 20 20 20 20 20 20 20 20 21 20 17 13 12 12 11 9 9 11 14 15 15 15 16 17 16 16 16 16 16 15 15 14 13 13 13 13 13 14 15 15 15 15 15 15 16 17 18 18 18 18 18
4 3 4 5 6 6 6 7 7 9 11 12 12 12 13 14 14 14 14 14 14 14 14 14 14 15 14 14 13 12 13 16 19 20 19 18 17 17 17 18 19 20 22 23 24 23 21 16 13 13 14 14 15 16 17 17 17 18 19 20 20 20 20 21 20 20 20 20 19 18 18 17 17 17 18 18 19 19 19 18 18 18 18 18 18 18 17
5 4 4 5 6 7 8 8 7 7 9 10 11 11 12 13 13 13 14 13 13 13 14 14 14 14 14 14 14 13 13 14 17 19 19 20 21 21 20 19 19 20 22 23 24 25 25 23 20 17 16 17 20 20 19 18 17 18 20 22 23 23 24 24 24 24 25 25 24 24 23 23 22 22 21 21 22 22 22 21 21 20 20 19 19 18 18
5 5 4 5 6 7 9 9 6 5 6 8 10 10 11 12 12 13 14 13 13 13 13 12 12 13 14 13 13 13 13 14 15 16 18 19 22 23 23 23 22 23 24 25 25 25 26 26 25 24 21 20 22 23 21 19 19 19 19 20 21 22 24 25 26 27 27 26 26 26 26 26 25 25 24 24 23 22 22 21 21 20 19 18 18 17 16
6 6 5 5 5 6 7 8 7 5 5 7 9 10 11 11 12 12 13 13 13 13 13 12 11 12 13 13 12 12 12 12 13 14 16 17 17 19 20 21 21 22 23 24 24 23 23 23 25 26 25 24 24 24 23 23 23 24 24 23 23 24 25 25 26 26 26 25 25 24 24 23 23 22 22 21 21 19 18 18 17 16 15 14 14 14 12
6 6 5 5 5 4 5 7 7 6 6 7 9 9 10 11 12 12 12 12 12 13 13 12 11 11 11 11 11 12 12 12 12 13 14 15 16 17 18 18 20 21 21 21 22 22 22 21 22 23 24 25 25 25 24 23 23 23 23 23 23 23 22 22 21 21 21 21 21 20 20 19 18 18 17 17 16 15 15 14 13 12 11 11 11 10 10
5 5 5 5 5 4 4 5 7 7 7 8 9 10 10 10 11 11 11 11 11 11 12 12 11 11 11 11 11 12 12 12 12 12 12 14 16 17 17 17 18 18 19 19 19 19 19 19 19 19 19 21 23 24 24 24 23 23 22 21 20 20 21 20 20 19 18 18 18 18 18 17 17 17 17 16 15 15 14 14 14 13 12 12 11 11 11
Wind_Direction
257 265 271 272 277 280 282 285 279 286 301 279 242 231 239 234 233 236 228 229 247 256 222 136 81 30 61 50 28 53 101 112 95 85 140 194 198 186 187 195 195 198 195 187 188 190 191 194 195 196 197 196 196 196 195 195 196 195 193 192 191 193 197 201 207 213 213 213 211 207 209 210 206 201 201 202 201 203 208 211 210 207 206 209 216 222 226
261 265 270 270 272 274 273 275 272 268 282 285 256 230 234 242 243 242 236 233 249 256 233 106 51 358 354 10 352 33 62 72 67 44 345 243 213 184 175 186 191 194 197 194 191 192 193 196 197 197 197 196 196 196 195 194 195 194 193 193 192 192 197 203 207 210 212 212 210 207 206 209 208 202 200 201 201 201 206 210 210 208 207 206 210 217 224
262 262 270 270 266 267 265 264 264 260 261 266 251 231 232 240 239 235 233 231 241 263 256 343 32 333 313 328 309 320 17 35 38 1 345 349 348 354 4 338 242 203 203 203 198 196 197 198 199 200 199 198 197 197 196 195 194 194 193 193 194 193 196 202 205 208 211 211 210 208 206 210 211 206 201 201 203 202 204 209 212 211 208 206 207 212 218
259 254 261 265 262 260 258 253 251 250 248 245 242 239 239 240 238 234 232 231 232 252 256 289 6 322 296 304 303 318 4 0 339 322 318 334 341 334 334 335 331 310 250 221 208 205 204 203 202 202 201 200 198 198 198 196 194 194 193 193 194 193 195 200 203 207 210 210 210 209 209 212 214 212 206 203 203 203 203 208 214 215 212 210 208 209 212
262 256 256 263 262 252 245 243 241 240 240 240 240 243 243 244 242 233 229 232 234 240 254 287 338 315 298 304 312 321 334 334 324 304 302 315 319 311 313 317 315 305 282 250 227 217 213 210 207 205 203 201 200 199 198 196 194 193 194 194 194 193 195 199 203 206 210 211 210 210 211 213 215 215 211 207 206 206 205 210 216 218 217 215 212 210 210
262 263 266 266 259 246 238 240 240 237 235 236 239 245 246 243 239 236 238 241 238 245 284 309 314 312 307 305 307 309 309 305 299 294 300 308 303 299 304 306 304 300 297 286 263 239 225 219 215 210 205 203 201 199 197 195 194 194 194 194 194 193 194 198 202 205 208 211 212 211 212 214 215 216 214 212 213 212 211 213 218 221 219 218 217 217 214
258 265 266 257 247 246 252 258 253 245 239 238 239 242 244 244 241 239 245 250 248 270 327 319 307 310 308 304 301 299 298 301 303 304 309 313 311 307 304 303 301 298 296 288 273 259 244 231 221 213 208 204 200 197 195 194 193 194 195 193 194 193 193 197 202 203 204 209 212 213 212 213 215 216 216 215 216 217 216 217 222 225 223 221 223 225 223
252 256 251 249 258 267 264 259 258 255 249 249 248 241 237 238 236 237 248 252 253 269 305 313 307 304 301 295 290 295 318 339 341 336 326 320 318 314 309 308 304 301 297 288 276 266 257 242 225 215 209 204 199 196 194 193 192 193 194 193 193 193 194 198 203 204 201 205 211 214 213 213 215 216 217 217 218 219 219 218 221 227 227 226 227 229 230
243 250 249 253 268 267 253 246 251 253 250 253 258 251 240 228 215 216 244 252 264 294 320 323 312 308 302 283 275 330 5 2 352 342 330 321 317 314 311 307 304 302 298 293 286 274 259 244 227 215 208 203 198 195 193 192 191 191 193 193 193 195 197 199 204 207 206 207 211 215 215 214 215 216 217 218 219 221 221 219 218 224 228 229 230 232 233
241 247 250 253 256 250 245 262 310 327 315 304 293 266 260 238 214 203 229 251 325 334 335 327 313 302 282 252 253 11 0 348 342 337 329 323 318 314 312 308 306 305 303 298 292 280 263 244 227 215 206 199 196 194 192 191 190 190 192 192 194 200 203 203 207 211 212 213 215 217 216 215 216 217 218 219 220 222 223 222 218 219 225 228 230 232 235
239 241 241 245 250 246 265 343 349 346 338 334 316 222 239 266 318 333 267 260 350 342 325 319 310 290 257 235 352 359 345 338 338 335 329 326 321 315 313 310 307 306 307 303 293 280 263 244 228 215 204 197 195 194 191 189 189 190 192 194 199 206 206 205 209 213 213 215 218 218 218 217 217 217 219 220 221 223 225 225 223 219 220 224 227 231 235
235 238 237 240 246 253 30 7 338 327 332 335 297 221 201 61 26 0 338 342 2 338 313 312 318 315 290 298 333 338 333 332 333 331 330 328 322 318 316 313 310 309 308 304 293 276 258 243 227 213 203 197 194 194 191 188 189 192 196 199 202 205 205 205 210 212 212 215 218 219 219 219 218 218 219 219 221 224 225 227 227 223 221 222 225 228 231
231 231 237 244 235 203 15 349 337 331 325 319 257 237 339 33 49 41 30 14 0 353 340 333 339 333 320 317 323 329 332 334 332 332 333 329 322 318 315 312 313 311 306 300 291 272 254 239 222 209 202 196 195 195 191 189 194 197 198 198 197 199 204 207 209 209 209 213 217 218 218 219 218 218 219 219 220 223 224 225 225 223 221 222 224 226 228
232 229 235 244 231 95 3 333 346 6 328 262 224 328 330 354 38 41 31 21 7 3 6 355 340 334 332 330 331 336 339 338 336 337 336 332 329 324 316 313 317 315 305 297 285 266 248 232 215 207 201 197 196 195 192 194 200 199 195 192 193 200 206 205 204 205 206 211 215 214 215 219 219 218 220 220 220 222 222 222 222 221 220 220 220 223 226
228 228 231 240 233 49 11 341 357 31 4 309 349 331 321 357 39 18 12 26 14 2 8 358 345 345 348 347 348 351 351 347 346 345 341 337 334 330 321 315 316 313 303 294 279 257 240 225 211 204 200 196 197 196 195 198 201 195 191 192 197 203 206 203 201 203 205 210 213 209 210 217 219 218 219 218 219 221 221 218 218 219 221 220 219 219 223
226 226 227 249 273 23 20 8 14 28 8 350 344 333 332 360 16 359 357 9 4 355 349 344 345 352 354 354 356 360 0 357 354 352 348 343 340 339 332 314 301 304 301 286 267 247 233 219 205 200 198 195 196 197 198 201 199 192 190 193 196 201 204 202 200 198 200 208 212 206 206 214 216 216 217 216 215 218 219 216 214 214 217 220 220 219 219
279 265 265 306 324 342 4 7 2 357 344 323 324 328 333 337 339 340 338 339 346 347 338 341 351 354 354 354 354 357 359 358 355 354 353 349 347 353 353 325 292 317 318 279 248 240 224 209 199 198 198 197 197 199 200 199 195 191 189 190 194 200 202 200 198 195 196 204 208 203 201 210 215 215 215 215 213 214 214 212 210 209 211 216 219 219 219
303 293 283 289 302 316 333 341 345 355 325 311 314 318 322 320 319 320 320 320 328 333 334 345 351 350 354 355 351 352 356 356 354 356 356 355 357 7 12 7 328 345 347 288 242 255 219 202 198 198 200 200 199 200 199 194 191 189 187 190 196 198 197 196 194 191 188 193 201 200 198 205 213 214 213 213 212 210 209 207 207 208 208 211 215 216 217
300 304 317 330 320 312 314 315 310 317 318 313 314 313 309 304 303 306 310 311 312 316 332 346 346 346 353 354 349 349 353 354 355 357 358 0 5 14 22 34 48 30 24 32 220 254 184 185 191 197 200 202 201 200 197 194 191 187 186 191 195 192 188 188 187 185 184 187 193 195 194 197 204 209 210 211 209 207 206 206 207 209 209 209 211 212 214
286 281 319 339 322 302 298 303 309 332 327 319 314 309 305 299 292 292 301 306 306 310 326 341 343 345 352 356 351 346 348 353 356 357 359 6 13 18 25 38 60 65 47 45 59 82 121 165 186 195 199 203 204 199 195 192 189 184 183 189 191 184 181 183 183 183 186 187 188 190 190 191 194 199 202 203 204 207 209 207 206 208 209 208 209 211 212
287 273 319 341 326 299 306 347 345 334 325 317 311 305 302 297 288 286 294 302 302 304 315 332 342 345 352 357 354 347 347 353 357 359 3 10 17 20 23 34 52 67 64 57 61 68 80 130 168 180 185 193 197 194 190 188 186 183 184 188 186 181 178 180 180 181 183 185 187 187 187 188 191 195 197 198 200 204 209 209 207 207 209 209 211 212 213
297 313 337 340 326 294 311 327 325 321 319 313 307 302 297 292 287 285 290 297 299 300 307 321 335 343 349 354 355 353 351 353 356 359 3 11 20 27 31 35 47 63 70 69 70 73 74 83 109 136 158 174 183 186 185 185 185 184 185 184 182 180 177 176 178 180 180 181 186 187 186 190 196 197 197 198 197 199 206 211 209 206 208 211 214 216 216
303 315 320 321 312 296 300 307 309 310 310 306 301 299 295 291 290 285 281 288 296 299 304 312 325 339 345 349 357 0 355 353 357 360 1 8 18 27 33 40 47 55 61 66 71 72 66 64 91 117 128 145 163 175 180 184 185 184 182 180 178 178 176 175 178 181 179 180 187 188 187 193 201 202 201 201 201 201 207 214 212 209 209 211 214 218 220
304 308 313 312 306 298 298 303 304 301 301 301 301 299 294 292 291 283 273 277 288 294 300 304 313 330 338 343 1 11 2 354 358 3 4 7 15 23 32 42 47 48 51 58 66 70 66 58 68 104 129 138 144 158 174 183 185 184 182 181 179 178 175 175 178 181 180 181 187 189 189 194 203 206 205 205 206 206 209 215 217 217 216 214 214 217 221
327 324 322 313 303 302 311 312 305 299 301 306 302 296 293 294 292 282 272 271 273 282 294 297 299 317 331 336 356 15 8 354 356 4 7 6 10 21 32 38 41 43 48 52 59 68 71 62 61 74 101 127 128 124 155 174 179 181 181 178 176 174 173 174 178 180 180 181 186 189 189 193 201 206 206 207 212 213 212 214 219 221 222 221 219 219 220
349 340 336 329 314 319 329 325 316 314 316 312 306 301 299 297 292 283 273 266 263 267 279 286 291 306 322 329 341 1 9 1 360 5 7 6 9 20 29 32 34 40 48 53 54 60 66 64 61 65 71 76 77 77 101 144 162 169 172 171 172 172 172 174 177 178 179 182 187 188 189 192 199 202 200 203 213 220 220 219 220 223 225 225 223 222 222
357 352 353 351 337 333 337 335 329 326 323 320 319 316 308 297 286 278 269 261 259 262 268 275 284 297 314 327 334 344 2 11 7 4 5 6 9 17 23 26 31 41 50 53 51 51 54 57 59 58 59 62 67 67 79 124 141 145 150 159 168 172 173 175 178 180 181 184 187 188 191 197 201 204 204 201 207 220 227 226 225 226 227 227 225 224 226
2 1 2 359 345 339 340 338 335 334 333 333 332 329 324 311 286 269 263 258 254 257 264 270 276 290 309 325 333 340 357 11 7 3 4 3 4 11 18 21 28 39 45 47 49 49 48 48 51 50 48 54 61 59 51 78 128 126 121 130 149 160 165 167 169 173 177 181 185 187 192 198 200 204 210 208 204 211 222 222 221 225 229 230 229 229 231
6 3 4 4 356 348 346 346 348 350 349 348 346 344 342 334 302 269 261 257 249 246 252 259 266 285 303 318 332 345 357 6 6 5 3 360 2 10 16 18 24 34 39 41 45 48 49 49 49 45 39 38 46 53 50 51 94 118 113 111 122 139 148 150 157 168 172 175 182 184 186 191 193 196 205 205 199 205 214 216 219 228 234 233 231 231 232
7 5 5 5 1 356 355 356 357 359 360 357 355 354 353 347 328 284 258 250 243 234 234 244 263 290 304 316 330 342 353 2 8 9 4 359 4 14 17 17 22 29 34 37 39 42 48 52 50 46 41 35 33 42 52 57 65 82 102 114 120 126 132 133 140 158 170 173 177 179 179 183 185 189 199 201 195 200 214 221 226 234 235 229 225 225 226
8 8 6 6 3 360 359 0 2 6 6 3 360 359 357 354 345 316 265 249 233 198 200 216 246 303 321 328 334 339 344 349 358 7 5 360 4 11 15 19 23 23 26 33 35 35 39 47 52 51 47 41 35 34 39 49 60 66 74 99 118 125 130 130 129 137 148 155 157 159 163 175 182 188 198 200 197 204 221 227 226 225 221 214 211 211 211
8 10 8 7 6 4 3 4 5 7 8 7 6 3 358 354 350 344 306 255 249 221 176 204 233 284 328 334 335 341 349 347 351 4 6 0 2 8 11 17 23 21 20 27 32 31 31 37 46 50 47 43 41 38 33 35 48 59 66 79 97 111 123 131 130 127 132 141 146 147 150 163 178 187 193 198 205 219 231 229 216 203 198 198 200 200 201
10 11 9 9 9 8 7 6 5 6 8 10 9 7 5 3 1 2 6 284 257 323 10 11 294 303 328 332 334 349 4 3 4 13 12 6 9 14 13 14 18 20 17 17 23 28 29 28 32 40 45 43 42 41 34 26 26 35 52 70 83 92 106 122 129 128 129 135 139 142 146 153 167 181 191 200 211 217 214 205 195 188 187 194 198 196 194
16 16 12 11 13 12 9 7 7 7 9 12 13 13 13 13 12 13 20 38 82 95 32 356 345 354 352 338 349 9 16 15 17 23 20 13 12 17 19 17 14 13 15 14 12 19 27 26 22 24 31 38 41 41 35 27 16 11 29 60 76 79 82 97 113 124 132 138 144 158 175 184 190 192 193 199 203 198 188 186 189 192 197 203 204 197 190
21 21 15 14 19 19 14 10 10 11 12 14 16 17 17 19 21 24 26 32 48 78 114 123 90 76 76 41 28 33 33 29 28 31 29 22 14 12 17 20 11 5 11 19 19 18 17 18 20 17 11 15 31 42 43 37 24 11 17 43 66 72 69 69 75 83 94 108 123 142 174 204 208 199 193 190 191 191 190 192 195 199 204 205 200 193 185
24 25 19 16 19 21 20 15 12 14 16 15 15 16 18 21 25 29 31 35 42 51 63 72 70 62 53 44 42 47 51 50 44 38 34 27 16 9 10 13 13 11 10 13 21 28 21 11 16 20 8 358 7 24 40 50 47 36 33 44 59 66 65 62 62 64 68 73 75 75 78 86 119 192 202 199 196 195 194 193 195 197 198 193 188 185 183
29 29 24 22 22 24 26 23 18 17 18 16 14 15 17 20 26 30 33 39 46 48 47 50 54 53 46 43 43 47 52 53 49 44 40 30 19 13 12 10 10 15 15 6 4 12 18 16 16 18 11 0 356 0 10 24 36 43 44 42 46 57 62 61 59 61 65 68 66 60 56 58 60 96 210 210 205 197 189 184 182 181 182 182 182 184 184
31 31 30 28 27 27 29 31 28 24 21 18 18 19 18 19 25 30 32 36 44 49 48 47 50 52 48 45 45 46 47 48 47 45 44 38 29 26 24 19 15 16 18 16 8 2 1 5 11 8 2 358 351 346 349 355 2 13 24 26 30 44 56 58 56 56 58 60 62 59 53 48 47 69 179 194 196 191 184 179 175 174 175 178 180 184 187
32 36 37 35 31 29 31 33 32 30 26 22 22 23 22 20 21 25 29 33 39 46 50 49 48 49 50 48 48 45 43 44 46 44 40 40 41 41 37 31 26 22 18 16 15 12 5 358 355 359 8 7 347 334 334 337 342 351 2 9 17 29 42 50 53 53 53 55 56 53 50 65 87 134 166 175 179 179 178 178 179 179 179 179 179 181 183
34 37 41 40 35 31 32 32 32 31 30 28 24 23 25 24 21 20 24 29 33 39 44 45 45 48 50 49 48 46 44 44 48 50 47 41 41 44 42 35 28 24 19 14 14 16 15 6 359 3 18 32 4 328 326 327 330 338 347 356 6 18 29 39 45 47 52 60 65 61 67 135 148 157 165 171 175 177 177 178 179 179 179 179 181 180 177
36 39 43 47 43 36 34 35 34 32 30 30 28 25 26 29 28 25 24 24 28 34 39 40 41 45 48 50 51 51 48 45 46 50 52 48 42 40 39 34 27 22 18 17 17 19 20 22 25 22 20 25 30 14 346 327 325 335 346 353 0 11 20 29 38 43 47 55 67 82 119 160 167 164 164 167 170 172 174 175 175 175 174 173 172 170 167
36 39 41 44 43 41 39 38 38 36 33 31 30 28 27 29 32 32 29 26 25 30 35 38 41 45 48 51 52 52 50 47 47 48 49 49 47 44 39 31 25 23 21 22 25 26 26 31 38 39 34 31 29 22 7 339 333 352 5 6 7 12 18 24 37 51 57 62 81 116 148 166 167 161 159 162 164 163 164 164 163 163 164 162 158 157 158
59 52 43 38 37 38 39 38 39 40 39 36 33 32 31 31 31 33 33 31 28 29 32 36 40 43 47 51 53 53 53 52 50 49 48 47 47 46 43 36 29 29 30 33 36 36 35 38 42 45 47 45 38 30 29 34 31 28 34 37 37 40 43 42 46 66 87 99 114 133 150 161 162 159 158 157 154 153 155 156 152 149 152 156 158 159 160
63 48 38 34 30 29 31 34 38 42 42 40 38 37 36 34 32 33 34 34 33 31 32 34 37 39 42 47 51 52 53 54 54 53 53 52 48 44 43 41 38 37 40 45 50 50 49 48 49 50 52 55 53 50 54 59 60 59 62 66 68 71 72 70 75 90 100 105 113 123 131 139 147 151 152 151 148 145 145 145 144 143 145 150 154 157 158
41 25 23 24 24 22 22 26 32 37 41 44 45 43 41 40 38 36 35 35 35 35 34 34 37 39 41 45 49 52 55 58 58 55 55 57 53 47 43 44 45 45 46 49 52 55 55 56 58 62 66 68 65 63 65 71 75 77 79 80 81 82 84 86 93 100 103 107 114 120 124 129 133 134 136 139 141 141 140 138 137 138 141 144 146 148 148
26 18 12 5 4 9 14 20 27 33 37 42 46 45 44 44 43 41 40 38 38 38 38 37 37 38 39 42 49 54 56 58 58 56 56 59 59 55 53 53 53 54 54 54 52 51 51 54 60 69 76 80 81 81 83 84 82 82 84 87 87 87 88 89 92 96 100 104 110 117 122 126 127 128 129 130 131 134 137 139 139 138 137 136 136 137 137
10 10 7 359 358 360 0 6 21 33 36 38 42 45 46 47 45 43 44 44 40 39 41 42 41 40 39 41 46 53 57 60 59 57 57 61 64 62 60 59 58 58 59 60 58 54 51 50 56 72 84 89 88 88 90 87 81 79 85 91 95 97 98 99 98 99 100 102 106 110 114 117 118 119 121 122 121 121 124 126 128 129 128 127 126 126 126
1 0 358 357 1 5 3 2 14 31 36 37 39 43 46 48 46 44 46 48 45 42 42 43 43 42 42 43 45 49 56 64 66 64 63 66 71 72 71 70 69 67 67 68 70 69 65 61 60 66 80 92 93 89 84 77 72 75 83 89 92 96 99 100 101 102 104 105 107 109 111 112 113 114 114 114 114 113 113 113 113 114 115 117 118 118 120
353 357 359 359 5 13 15 15 22 38 42 40 40 41 42 43 43 41 43 47 50 49 47 45 43 42 42 44 47 50 54 61 68 72 73 74 76 76 74 72 71 70 70 71 72 74 75 73 70 67 69 77 83 84 80 77 76 80 84 88 91 95 98 100 101 103 103 103 102 103 103 105 107 109 109 110 110 111 112 112 111 110 111 114 115 115 116
350 358 9 15 16 18 19 20 29 46 49 42 41 42 41 42 42 40 39 41 46 50 51 50 48 46 45 45 46 50 56 61 65 68 70 70 70 71 70 66 63 63 66 69 70 69 71 74 77 77 76 75 74 73 73 75 79 83 87 90 93 96 98 100 102 103 103 102 101 100 99 99 100 102 104 105 107 108 109 110 110 110 111 113 113 113 113
359 6 17 26 29 27 21 23 34 50 52 42 39 39 39 40 44 44 41 41 44 48 52 55 55 53 53 52 48 49 57 66 67 65 65 65 64 63 64 61 57 55 57 61 64 65 66 69 73 79 84 86 85 82 79 78 78 80 81 84 86 88 89 91 93 94 96 97 97 97 96 94 94 93 94 95 96 97 97 97 97 97 97 95 94 93 93
9 15 19 25 32 40 43 41 46 51 50 44 41 39 36 36 40 43 43 44 46 48 53 58 60 56 56 60 59 55 59 68 70 66 65 67 66 64 63 61 59 56 55 55 56 58 62 67 70 73 77 82 87 90 90 89 87 86 85 84 84 85 85 86 87 88 89 91 92 92 92 92 92 91 90 90 89 90 91 91 91 91 91 90 91 92 93